STARLINK-32868, 62854

Orbit data source: Space-Track

STARLINK-32868, 62854 is a payload satellite owned by SpaceX/Seattle (US) in LEO that was launched on Sat, 01 Feb 2025 UTC via an FALCON 9 launch vehicle from the Air Force Western Test Range (AFWTR). Payload-class satellites include a variety of spacecraft equipped with specific instruments for various scientific and technological missions. These include communications satellites like Starlink; space stations such as the ISS; scientific satellites like the Hubble; Earth observation satellites from companies like Planet Labs, Umbra, and HawkEye 360; GPS; miniature CubeSats for education and research; and military/defense satellites.

Loading next visibility...
Identifier
62854, 2025-022A
Orbit
LEO
Country
Flag of USUS
Related business
Manufacturer
SpaceX/Seattle
Mission
Operational spacecraft
Bus & Motor
STARLINK V2M, Unknown motor
Mass
730 kg wet, ~700 kg dry
Launch date (UTC)
2025-02-01 (9 months ago)
Launch vehicle
FALCON 9
Launch site
Air Force Western Test Range (AFWTR)
Object type
Payload
Rocket body
Debris
Shape & HBR
Unknown shape, 17.7 m
Radar Cross Section
Large (>1 m²)

Expand to show TLE details & history
Last TLE update: 7 hours ago

TLE from 7 hours ago
0 STARLINK-32868
1 62854U 25022A   25304.74951352  .00033529  00000-0  11399-2 0  9993
2 62854  53.1601   8.1851 0001139  66.4693 293.6427 15.30177579 42974
Epoch: 2025-10-31T17:59Z
TLE epoch observation values (Epoch: 2025-10-31T17:59:17.968Z)
Latitude
-0.00003°
Longitude
58.07073°
Altitude
475.869 km
Speed
7.629 km/s
True Right ascension
00h 32m 44s
True Declination
0° 00' 00"
Sunlit
Object was in full shadow at epoch
Visualization orbit readout
Latitude
Unknown
Longitude
Unknown
Altitude
Unknown
Speed
Unknown
Apparent Right ascension
Unknown
Apparent Declination
Unknown
Sunlit
N/A
Visualization observer readout
Local Sidereal Time
21:04:13
Azimuth
Unknown
Elevation
Unknown
Doppler factor
Unknown
Orbital elements
Apogee altitude
476.319 km
Perigee altitude
474.758 km
Semi-major axis
6,853.675 km
Eccentricity
0.00011
Inclination
53.1601°
RAAN
8.1851°
Arg. of periapsis
66.4693°
True anomaly
293.63074°
Mean anomaly
293.6427°
Eccentric anomaly
293.63672°
Mean motion
3.82523 °/min
Orbital period
94.11 mins
BSTAR
0.0011399
Loading maneuver chart data...
Computing Atmospheric mass density...
Loading historical data...
Loading historical data...
Loading historical data...
Loading historical data...
Loading historical data...
Loading historical data...
Loading historical data...

Documentation

Showing up to 5 results
|